Regional Weather Roundup
Issued by NWS Charleston, SC

Current Version | Previous Version | Graphics & Text | Print | Product List | Glossary On
Versions: 1 2 3 4 5 6 7 8 9 10 11 12 13 14 15 16 17 18 19 20 21 22 23 24 25 26 27 28 29 30 31 32 33 34 35 36 37 38 39 40 41 42 43 44 45 46 47 48 49 50
000 ASUS42 KCHS 210927 RWRCHS Regional Weather Roundup National Weather Service Charleston SC 400 AM EST SUN JAN 21 2018 NOTE: "fair" indicates few or no clouds below 12,000 feet with no significant weather and/or obstructions to visibility. Not all stations are quality controlled. Use data with caution, especially dewpoint observations. SCZ027-030-031-034>040-042>050-211000- ...Southeast South Carolina... CITY SKY/WX TMP DP RH WIND PRES REMARKS N Charleston MOCLDY 49 29 46 NW5 30.23S Waterfront Prk NOT AVBL Mount Pleasant FAIR 48 32 53 CALM 30.24S Johns Island FAIR 50 30 46 W3 30.23F Pinopolis N/A 45 36 70 VRB2 30.16R Moncks Corner FAIR 45 32 61 CALM 30.24R Summerville FAIR 41 34 75 CALM 30.24S Beaufort MCAS FAIR 49 33 54 CALM 30.23F Beaufort Arpt FAIR 46 32 57 SW5 30.24R Hilton Head Is FAIR 50 27 40 W6 30.24S Walterboro FAIR 41 34 75 CALM 30.24F Allendale FAIR 39 37 93 CALM 30.22F ...Southern Midlands and Pee Dee... CITY SKY/WX TMP DP RH WIND PRES REMARKS Georgetown FAIR 43 32 65 CALM 30.24R Kingstree FAIR 34 32 93 CALM 30.23S Orangeburg FAIR 37 35 92 CALM 30.22S Barnwell N/A 37 36 93 CALM 30.23S Aiken FAIR 34 32 93 CALM 30.25S Manning FAIR 36 32 87 MISG 30.23S Columbia FAIR 33 31 92 CALM 30.22S Sumter FAIR 37 30 77 CALM 30.20S Florence FAIR 34 30 85 SW3 30.22F Myrtle Beach FAIR 40 32 73 CALM 30.24S N Myrtle Beach FAIR 39 34 82 CALM 30.22F $$ GAZ063-065-086>088-099>101-113>116-118-119-134>141-150-211000- ...Southeast Georgia... CITY SKY/WX TMP DP RH WIND PRES REMARKS Savannah Arpt FAIR 48 29 47 W3 30.24F Hunter AAF MOCLDY 47 30 50 CALM 30.21F Fort Stewart CLOUDY 49 29 45 CALM 30.23R Statesboro FAIR 49 31 50 W5 30.23S Sylvania FAIR 44 38 77 CALM 30.24S Claxton FAIR 42 39 88 CALM 30.24S ...CSRA, Central and far Southeast Georgia... CITY SKY/WX TMP DP RH WIND PRES REMARKS Thomson FAIR 33 31 93 CALM 30.27S Augusta-Bush FAIR 34 34 100 CALM 30.23S Augusta-Daniel FAIR 44 38 79 SE3 30.22S Swainsboro N/A 41 41 100 CALM 30.24S FOG Vidalia FAIR 48 36 61 CALM 30.24S Eastman FAIR 42 35 75 CALM 30.26S Hazlehurst FAIR 48 28 46 CALM 30.23S Alma FAIR 45 35 68 CALM 30.25R Waycross FAIR 46 34 65 CALM 30.25S Jesup FAIR 45 36 70 CALM 30.26S Baxley FAIR 43 32 65 CALM 30.25R Brunswick FAIR 50 32 50 CALM 30.26R Saint Simons FAIR 48 38 68 CALM 30.25S $$ SCZ027-028-034-036>038-045-046-048>050-GAZ119-141-211000- ...Lake and Supplemental Coastal Observations... STATION/POSITION TIME TEMP WIND PRES WAVE SWELL AIR SEA DIR/SP/G HT/PER HT/PER/DIR (UTC) (F) (DEG/KT/KT) (MB) (FT/S) (FT/S/D) Winyah Bay 0845 49 290/ 6 1023.0S Lake Murray 0850 41 CALM 1022.4S ACE Basin NERRS 0845 47 CALM 1024.0S Fort Pulaski 0900 49 46 290/ 3/ 3 1024.2 Sapelo Island 0900 47 220/ 4 1025.0 $$ ANZ835-935-AMZ111-154-330-350-352-354-370-450-454-472-211000- ...C-MAN and Buoy Observations... STATION/POSITION TIME TEMP WIND PRES WAVE SWELL AIR SEA DIR/SP/G HT/PER HT/PER/DIR (UTC) (F) (DEG/KT/KT) (MB) (FT/S) (FT/S/D) Buoy 41004 0910 61 70 280/ 14/ 17 1023.5 Buoy 41008 0850 50 50 240/ 4/ 6 1024.3R 1/11 2/ 80/11 Folly Beach CMAN 0900 48 260/ 3/ 5 1024.2S Capers Nearshore 0908 46 280/ 4/ 6 1023.5R Fripp Nearshore 0908 44 45 270/ 4/ 4 1023.2R STATION/POSITION TIME TEMP WIND PRES WAVE SWELL AIR SEA DIR/SP/G HT/PER HT/PER/DIR (UTC) (F) (DEG/KT/KT) (MB) (FT/S) (FT/S/D) 5E St. Marys GA 0900 49 N/A 1/11 Frying Pan Buoy 0910 53 56 290/ 8/ 10 1023.4 Buoy 41025 0910 59 69 290/ 16/ 21 1022.3 Cape Lookout NC 0900 250/ 7/ 7 1022.8F Buoy 41002 0850 67 70 230/ 10/ 14 1023.4S 4/10 3/ 90/10 Buoy 41010 NOT AVBL St Augustine FL 0900 51 51 350/ 9/ 10 1024.1F $$

USA.gov is the U.S. government's official web portal to all federal, state and local government web resources and services.